Location: ??????
(42.0089°N, 44.3281°E)
Time: 17:40:23
(UTC+00:00)

USA 267 - Pass Details

Date: 29 May 2022
Orbit: 1101 x 1106 km, 123.0° (Epoch: 28 June)

Event Time Altitude Azimuth Distance (km) Brightness Sun altitude
Exits shadow 22:00:46 29° 139° (SE) 1,883 4.2 -24.7°
Maximum altitude 22:04:22 79° 223° (SW) 1,122 3.1 -24.6°
Drops below altitude 10° 22:10:56 10° 310° (NW) 2,964 5.8 -24.2°
Sets 22:13:26 0° 312° (NW) 3,925 6.5 -24.1°
